sat.trackr.live / text

‹ back to catalog

STARLINK-32650

NORAD 62231 · 2024-231P

PAYLOAD ACTIVE UNKNOWN

§ Identity

Operator
Country
US
Launch date
2024-12-05
Launch site
AFWTR
Launch vehicle
Mass (kg)
RCS (m²)

Purposes: comms

External: N2YO · Heavens-Above · Gunter

§ Orbital elements

Epoch: 2026-05-24T15:16:34.711968Z

Period
94.11 min
Inclination
53.1588°
Eccentricity
0.0001093
Mean motion
15.30197983 rev/d
Perigee alt
474.5 km
Apogee alt
476.0 km
Semi-major
6,853.4 km
B*
8.3933e-4
RAAN
227.0448°
Arg perigee
88.2955°
Mean anomaly
271.8171°
Rev number
8,339

§ Raw data

STARLINK-326501 62231U 24231P   26144.63651287  .00024580  00000+0  83933-3 0  99982 62231  53.1588 227.0448 0001093  88.2955 271.8171 15.30197983 83399

JSON: /api/v1/satellites/62231 · /tle

For live sub-satellite position, see the globe view (requires WebGL).

§ Visibility from observer

Set your observer location to see the next 7 days of passes ≥ 10°. The values pass through the URL so the page stays shareable.

No JS? Fill the form by hand. The geolocation button needs JavaScript.